RLM Profile,,,,,,,,,,,,,,,,,,,,,,,,, 
(In kWh),,,,,,,,,,,,,,,,,,,,,,,,,DSL
,HR1,HR2,HR3,HR4,HR5,HR6,HR7,HR8,HR9,HR10,HR11,HR12,HR13,HR14,HR15,HR16,HR17,HR18,HR19,HR20,HR21,HR22,HR23,HR24,0
1/1/2022,1.486597,1.4112,1.353187,1.361761,1.22974,1.192422,1.225333,1.273413,1.317364,1.34541,1.346047,1.410853,1.588302,1.501753,1.517287,1.607243,1.687417,1.848507,1.978933,1.929734,1.905545,1.798066,1.647074,1.480414,
1/2/2022,1.281814,1.122209,1.052534,1.054467,1.071399,1.047215,1.142677,1.160669,1.178602,1.207622,1.174387,1.289671,1.28489,1.243234,1.335149,1.410673,1.699953,1.967933,2.053229,2.085042,2.099651,1.935875,1.880505,1.64013,
1/3/2022,1.593259,1.541534,1.473543,1.38255,1.36533,1.436261,1.530282,1.643006,1.588788,1.600166,1.582101,1.701285,1.698052,1.711015,1.783395,1.913896,2.021295,2.199565,2.295066,2.150067,2.287343,2.229861,1.980036,1.814952,
1/4/2022,1.590676,1.416092,1.373793,1.351297,1.420331,1.445373,1.766511,1.718165,1.612162,1.456301,1.471415,1.281163,1.279426,1.308499,1.275848,1.446594,1.87203,2.253114,2.307357,2.520946,2.451648,2.288609,2.02996,1.764464,
1/5/2022,1.770375,1.646582,1.531887,1.364471,1.445945,1.448434,1.641427,1.739694,1.633847,1.492712,1.547397,1.514958,1.331148,1.30351,1.399153,1.724864,1.860105,2.058831,2.155685,2.162747,2.093554,2.119269,1.874776,1.728265,
1/6/2022,1.438938,1.352971,1.333389,1.309837,1.399151,1.376095,1.553101,1.722266,1.574835,1.381135,1.310968,1.296544,1.301906,1.160557,1.134367,1.321165,1.776534,2.115316,2.195286,2.165503,2.155318,2.066942,1.882259,1.766165,
1/7/2022,1.686339,1.556975,1.532415,1.436927,1.33777,1.36636,1.494859,1.593881,1.577625,1.494135,1.54105,1.567667,1.557745,1.709517,1.748279,1.810754,2.070167,2.233682,2.244282,2.26849,2.108158,2.072903,1.924434,1.736124,
1/8/2022,1.536186,1.503621,1.365987,1.329977,1.418828,1.385474,1.416251,1.564185,1.69819,1.736994,1.765518,1.810778,1.625237,1.560158,1.376012,1.524105,1.850974,2.121702,2.396094,2.224102,2.230856,2.379044,2.414612,1.961717,
1/9/2022,1.855486,1.676037,1.558598,1.610786,1.503642,1.518458,1.577397,1.601484,1.539416,1.668579,1.636727,1.69527,1.590651,1.709929,1.700595,1.812203,2.041492,2.359831,2.473904,2.237513,2.218669,2.168375,1.904792,1.689319,
1/10/2022,1.674628,1.593141,1.421688,1.340319,1.332882,1.397038,1.5403,1.697531,1.601227,1.365099,1.290536,1.346369,1.319561,1.212248,1.217588,1.599585,1.842862,2.142236,2.330937,2.391597,2.341021,2.204014,1.923847,1.811687,
1/11/2022,1.661288,1.540394,1.454938,1.433772,1.479506,1.574797,1.764097,1.874239,1.696905,1.526988,1.362489,1.310004,1.386291,1.36004,1.353847,1.591522,1.98553,2.339663,2.415441,2.348576,2.373707,2.258311,2.016374,1.841049,
1/12/2022,1.836664,1.745099,1.653149,1.563211,1.680952,1.722538,1.906109,2.087444,1.771146,1.407731,1.266696,1.266204,1.304749,1.333254,1.298719,1.477988,1.755665,2.011419,2.355926,2.499771,2.415654,2.27756,2.104723,1.748538,
1/13/2022,1.796951,1.467959,1.371506,1.339887,1.412888,1.455876,1.67136,1.729609,1.518814,1.253579,1.207629,1.219732,1.177969,1.146103,1.263738,1.446071,1.848787,2.090351,2.4223,2.439698,2.261242,2.008528,1.764089,1.69084,
1/14/2022,1.549696,1.461411,1.306784,1.277444,1.328818,1.386444,1.595882,1.668409,1.517881,1.259947,1.236906,1.08999,1.065273,1.058827,1.053152,1.220501,1.737361,2.025997,2.015421,2.112542,2.012593,2.097324,2.038724,1.853331,
1/15/2022,1.699601,1.562373,1.599759,1.625288,1.632575,1.685642,1.745051,1.735123,1.557861,1.4636,1.420527,1.413584,1.399933,1.530032,1.582539,1.69375,1.971761,2.25257,2.279827,2.289237,2.235991,2.178096,2.040664,1.980241,
1/16/2022,1.77284,1.732184,1.707757,1.6802,1.668609,1.739504,1.831343,1.813823,1.718924,1.681817,1.482245,1.502857,1.661747,1.728179,1.752968,1.857492,2.080807,2.339627,2.360814,2.375421,2.304071,2.211446,2.041086,1.696143,
1/17/2022,1.608878,1.521039,1.349125,1.361687,1.420559,1.364242,1.46295,1.549189,1.505767,1.319906,1.581683,1.650599,1.638821,1.818816,1.921354,1.831498,1.912931,2.239753,2.404943,2.384966,2.246941,2.098566,1.812817,1.574069,
1/18/2022,1.627954,1.563973,1.535557,1.507534,1.569821,1.503751,1.739349,1.957551,1.64588,1.444953,1.282473,1.27835,1.296508,1.226339,1.316003,1.403219,1.774083,2.122737,2.151184,2.180134,2.119471,2.022922,1.845273,1.667096,
1/19/2022,1.661126,1.556294,1.422547,1.517069,1.569496,1.577084,1.855261,1.929396,1.593855,1.34533,1.261078,1.127584,1.098717,1.123334,1.129071,1.270395,1.532068,1.8632,2.0185,1.973587,2.083261,1.971749,1.755607,1.610203,
1/20/2022,1.480817,1.355679,1.361388,1.297566,1.330445,1.413545,1.622427,1.714482,1.712233,1.569344,1.525205,1.340926,1.31409,1.467423,1.398955,1.58032,1.735197,2.052313,2.060956,2.012643,2.004177,2.163549,2.09813,1.842117,
1/21/2022,1.779616,1.707484,1.67536,1.592829,1.60702,1.604568,1.781843,2.022267,1.780605,1.527541,1.548742,1.351478,1.286358,1.261483,1.45618,1.664916,1.943624,2.220354,2.380801,2.274482,2.345539,2.330659,2.08885,1.832534,
1/22/2022,1.863851,1.823779,1.715333,1.676857,1.705348,1.789327,1.845317,1.83008,1.824147,1.638586,1.565298,1.500001,1.471902,1.550677,1.510383,1.503434,1.824657,1.994909,2.108231,2.135521,2.097972,2.089335,2.014335,1.896919,
1/23/2022,1.883099,1.746735,1.757694,1.591184,1.633348,1.69777,1.747042,1.748518,1.73657,1.629581,1.442449,1.399997,1.306145,1.272704,1.433456,1.613396,1.868647,2.151269,2.268325,2.14909,2.16852,2.051344,1.879184,1.659192,
1/24/2022,1.541456,1.413561,1.412289,1.442449,1.531101,1.582211,1.798722,1.990577,1.784449,1.513347,1.455762,1.303476,1.238964,1.286512,1.391607,1.563779,1.8904,2.011944,2.30396,2.217576,2.035747,2.012097,1.965956,1.925186,
1/25/2022,1.780551,1.699979,1.687095,1.620258,1.631716,1.654043,1.653934,1.900853,1.721648,1.671708,1.532371,1.480947,1.329484,1.352087,1.213187,1.3691,1.604479,2.013686,2.192345,2.23458,2.284614,2.255776,2.048862,1.765317,
1/26/2022,1.572185,1.476563,1.467535,1.480445,1.590204,1.575658,1.801437,1.929917,1.866146,1.63652,1.485698,1.483016,1.317086,1.297054,1.265663,1.435859,1.834287,2.25704,2.181365,2.283202,2.225128,2.186993,2.07453,1.753597,
1/27/2022,1.749922,1.700807,1.619888,1.637301,1.626915,1.674282,1.9312,2.020957,1.717345,1.505381,1.444025,1.337932,1.209011,1.230177,1.222341,1.349777,1.544235,1.926013,2.166272,2.276549,2.213517,2.073448,1.831304,1.65971,
1/28/2022,1.789093,1.497034,1.347154,1.391103,1.449889,1.518932,1.756695,1.803891,1.665106,1.552335,1.546924,1.447416,1.287766,1.256824,1.295834,1.589638,1.84547,1.935312,1.986089,2.053587,2.038338,2.115579,1.952902,1.671516,
1/29/2022,1.656275,1.527328,1.349125,1.347228,1.42119,1.425949,1.507577,1.595147,1.80618,1.841557,1.825169,1.90992,1.91469,1.950314,1.916943,1.951546,1.995575,2.229778,2.257708,2.136457,2.159683,2.079807,2.04588,1.776406,
1/30/2022,1.776013,1.651063,1.601984,1.580749,1.622854,1.601071,1.698831,1.776602,1.76366,1.792147,1.803587,1.727234,1.737341,1.719747,1.753366,1.760973,2.037752,2.241737,2.375198,2.338319,2.324506,2.225726,2.017333,1.758513,
1/31/2022,1.58315,1.52125,1.573696,1.524328,1.595385,1.639459,1.856418,1.879027,1.702512,1.806936,1.794877,1.716071,1.662617,1.524976,1.442676,1.520028,1.734186,2.062954,2.371429,2.222053,2.172276,2.171118,1.942406,1.697814,
2/1/2022,1.739323,1.69752,1.687627,1.660322,1.612483,1.584053,1.859055,1.87999,1.71895,1.6556,1.51537,1.502838,1.400259,1.299896,1.297093,1.414109,1.695943,2.062488,2.282246,2.402906,2.272707,2.196207,1.960025,1.744566,
2/2/2022,1.870468,1.673778,1.583348,1.536855,1.490904,1.501993,1.749571,1.85302,1.64683,1.443038,1.431993,1.313723,1.228651,1.213867,1.24876,1.367624,1.493907,1.842727,1.941086,2.055534,2.039695,1.994301,1.869068,1.645931,
2/3/2022,1.512562,1.446531,1.300085,1.278004,1.260931,1.340355,1.556636,1.56087,1.485881,1.396372,1.260337,1.254091,1.234703,1.255056,1.36317,1.388298,1.505801,1.840377,1.976405,1.849602,1.851256,1.927921,1.660922,1.513808,
2/4/2022,1.441924,1.359795,1.362931,1.311581,1.237303,1.123345,1.363786,1.360522,1.393289,1.405638,1.475064,1.438733,1.526438,1.536327,1.630447,1.683282,1.680781,1.959829,1.938626,1.962313,2.027016,1.978598,1.856995,1.73737,
2/5/2022,1.611856,1.512449,1.453853,1.470985,1.461643,1.429851,1.497771,1.58099,1.511359,1.401209,1.383623,1.267518,1.15858,1.165079,1.226497,1.401969,1.849024,2.054792,1.930247,1.91516,1.985741,1.911972,1.792714,1.813621,
2/6/2022,1.732859,1.603295,1.523729,1.532958,1.494819,1.546848,1.579902,1.608721,1.534654,1.473206,1.399153,1.370507,1.295116,1.323522,1.263734,1.277588,1.645319,2.017535,2.251129,2.096873,2.075614,2.051273,2.035647,1.785504,
2/7/2022,1.750854,1.628438,1.613052,1.583952,1.519752,1.436006,1.657448,1.887865,1.676666,1.530993,1.554565,1.56393,1.537905,1.546387,1.505079,1.651202,1.81284,2.068242,2.087242,2.024674,1.997515,2.031546,1.773553,1.587581,
2/8/2022,1.540837,1.33985,1.280871,1.256506,1.278567,1.3405,1.526657,1.582314,1.319095,1.249009,1.094888,1.099834,1.079612,1.049017,1.181618,1.297512,1.404505,1.753652,1.972842,1.879694,1.994411,2.009243,1.905442,1.68537,
2/9/2022,1.688079,1.491815,1.442581,1.346169,1.399126,1.415287,1.641222,1.733134,1.538438,1.233446,1.214656,1.115058,1.091919,1.053344,1.08805,1.07985,1.347065,1.774673,1.896485,1.945506,2.087225,1.954643,1.804071,1.742578,
2/10/2022,1.724918,1.65661,1.551681,1.526039,1.46165,1.446566,1.695323,1.643583,1.354642,1.167504,1.059113,1.095308,1.069825,1.047351,1.009239,1.101651,1.31415,1.756541,1.883471,1.909725,1.929252,1.730656,1.681376,1.499756,
2/11/2022,1.420979,1.300779,1.263597,1.258521,1.348226,1.44435,1.620273,1.629814,1.49791,1.30827,1.121055,1.145093,1.095905,1.033045,1.033794,1.12987,1.350714,1.643956,1.758167,1.781745,1.682547,1.675689,1.616956,1.476356,
2/12/2022,1.497863,1.459672,1.342793,1.378343,1.267516,1.216407,1.231231,1.312989,1.381189,1.135746,1.021394,1.035308,0.987428,1.040286,1.074603,1.206085,1.397169,1.480411,1.594684,1.60975,1.634094,1.685904,1.648936,1.571079,
2/13/2022,1.550728,1.458277,1.379552,1.30631,1.24181,1.37071,1.40731,1.478556,1.597297,1.728263,1.975904,1.92303,2.052151,2.105431,1.922778,1.980135,2.10657,2.292947,2.182609,2.024955,2.025508,2.064436,1.974431,1.87617,
2/14/2022,1.553168,1.464727,1.475492,1.429743,1.519784,1.55287,1.747974,1.844333,1.662701,1.637913,1.699539,1.613883,1.56275,1.529709,1.45635,1.487706,1.65038,1.976923,2.21782,2.232594,2.280143,2.26221,2.071384,1.860997,
2/15/2022,1.943789,1.903327,1.86784,1.918083,1.778274,1.803151,1.935717,2.048484,1.740289,1.688289,1.47594,1.351115,1.307744,1.309039,1.255953,1.354052,1.615487,2.040712,2.338033,2.361912,2.256312,2.200645,2.041064,1.732899,
2/16/2022,1.666,1.506608,1.476563,1.514261,1.60171,1.62721,1.872603,1.850522,1.602403,1.46065,1.302718,1.168258,1.171725,1.201949,1.171472,1.202398,1.472712,1.862755,2.083104,2.017213,1.907642,1.956419,1.82042,1.688309,
2/17/2022,1.502435,1.356896,1.19245,1.212246,1.261722,1.28145,1.460048,1.424338,1.194672,1.16876,1.090612,0.929143,0.953694,1.000308,0.89934,0.955532,1.242719,1.627573,1.750232,1.656938,1.657788,1.640196,1.609539,1.366953,
2/18/2022,1.344698,1.156609,1.120998,1.059482,1.113313,1.145775,1.286845,1.330676,1.231422,1.107861,1.053195,1.045533,1.022922,1.000777,1.09546,1.159009,1.341309,1.676051,1.858429,1.820624,1.731396,1.824605,1.808332,1.673121,
2/19/2022,1.644102,1.63311,1.548622,1.541056,1.56496,1.476325,1.473703,1.491398,1.472094,1.304395,1.277787,1.491303,1.512266,1.286326,1.218952,1.388698,1.408344,1.690784,2.054422,2.049668,1.89456,1.96257,1.853003,1.808076,
2/20/2022,1.849272,1.716727,1.483145,1.455182,1.471197,1.461001,1.504335,1.548367,1.592822,1.460088,1.404796,1.231809,1.229657,1.095532,1.069055,1.144734,1.369674,1.717277,1.848529,1.959946,1.782833,1.826615,1.80924,1.672753,
2/21/2022,1.64691,1.642273,1.562659,1.597607,1.509399,1.417916,1.582514,1.513879,1.483184,1.321642,1.122579,1.099602,0.957869,0.916572,0.997773,0.966947,1.240613,1.598438,1.840681,1.879196,1.939829,1.870089,1.631011,1.537758,
2/22/2022,1.452009,1.446554,1.409921,1.464123,1.465659,1.547893,1.766221,1.718096,1.411764,1.193915,1.09622,1.114982,1.236031,1.201033,1.236393,1.377304,1.396845,1.753602,1.870253,1.881834,1.797924,1.678465,1.463063,1.244573,
2/23/2022,1.175092,1.105669,1.108075,1.121544,1.128234,1.147452,1.233166,1.288531,1.141279,1.093084,0.998477,0.95655,0.916382,0.880105,0.900755,0.935586,1.03282,1.456775,1.595781,1.699166,1.730894,1.812798,1.715785,1.582826,
2/24/2022,1.436415,1.316791,1.287406,1.412814,1.500516,1.452149,1.658175,1.558035,1.426982,1.406455,1.287403,1.217632,1.228391,1.215143,1.199419,1.361503,1.471918,1.892563,1.943728,2.07108,2.045674,1.964474,1.884098,1.607674,
2/25/2022,1.587811,1.564708,1.542794,1.457573,1.387712,1.396855,1.589831,1.688001,1.855469,1.662995,1.535367,1.550138,1.401118,1.181934,1.195094,1.321159,1.497662,1.831788,1.873295,1.862414,2.034233,1.944606,1.865913,1.688731,
2/26/2022,1.6955,1.611829,1.61909,1.579155,1.549989,1.537095,1.567762,1.680305,1.546277,1.42602,1.271291,1.101664,1.065653,1.019918,1.115448,1.314313,1.484177,1.765339,1.941128,1.929684,1.9929,1.971096,1.851988,1.72769,
2/27/2022,1.74488,1.673154,1.582698,1.512414,1.471432,1.503023,1.55888,1.526629,1.448325,1.251206,1.133347,1.050704,1.125872,1.009418,1.040235,1.26047,1.39716,1.705433,1.837281,1.784452,1.984261,1.928793,1.915813,1.686201,
2/28/2022,1.520356,1.434621,1.425739,1.427342,1.53769,1.517694,1.698183,1.691081,1.483777,1.291387,1.174962,1.157297,1.164381,1.199068,1.170381,1.073358,1.32664,1.658737,1.932075,2.043392,2.029662,1.990054,1.865227,1.676722,
3/1/2022,1.682122,1.631268,1.485483,1.46086,1.516894,1.507062,1.667004,1.693102,1.484291,1.508596,1.407513,1.303973,1.242478,1.139715,1.155706,1.13998,1.304347,1.631953,1.855177,1.86042,1.868084,1.973574,1.820077,1.560971,
3/2/2022,1.466701,1.283549,1.289854,1.255999,1.332576,1.363891,1.559788,1.519944,1.2731,1.070085,1.082928,0.974222,0.955816,0.927073,0.941606,0.988092,1.08891,1.426935,1.652562,1.773112,1.831149,1.723478,1.604374,1.465628,
3/3/2022,1.432746,1.383433,1.217685,1.204435,1.29339,1.301468,1.481052,1.475994,1.157029,1.070244,0.907519,0.858918,0.881749,0.886123,0.865573,0.878475,1.119072,1.56491,1.806648,1.931507,1.92243,1.882442,1.814913,1.601541,
3/4/2022,1.688826,1.640858,1.535899,1.554745,1.562277,1.578018,1.713439,1.631119,1.475833,1.346717,1.218975,1.236579,1.104707,1.132132,1.16302,1.129017,1.474276,1.952638,2.090894,2.251793,2.050385,1.917041,1.782322,1.733436,
3/5/2022,1.618628,1.652379,1.583819,1.482317,1.449814,1.408572,1.484858,1.518571,1.438382,1.39046,1.269666,1.183269,1.083515,1.143151,1.272586,1.161035,1.2425,1.486758,1.78457,1.825512,1.640495,1.671512,1.718433,1.788549,
3/6/2022,1.667204,1.471986,1.398433,1.295019,1.218266,1.270559,1.259534,1.230126,1.349897,1.283328,1.314471,1.302754,1.415518,1.283507,1.140416,1.122738,1.274917,1.612458,1.766767,1.72883,1.860143,1.751401,1.639393,1.405847,
3/7/2022,1.142117,1.084765,1.016173,1.042819,1.107238,1.063546,1.262217,1.1558,0.996038,1.008611,0.955193,0.832223,0.848547,0.846673,0.823397,1.004912,1.309815,1.529734,1.698997,1.606061,1.628188,1.727509,1.600027,1.465991,
3/8/2022,1.275615,1.19467,1.138203,1.101437,1.124791,1.176415,1.487045,1.407189,1.189427,1.123318,0.909619,0.929128,0.867592,0.887443,0.940504,0.919444,1.105263,1.447094,1.723223,1.850139,1.794681,1.832698,1.782074,1.62999,
3/9/2022,1.61096,1.45745,1.33839,1.411412,1.510531,1.51256,1.631292,1.663564,1.654024,1.633536,1.435785,1.491994,1.524158,1.581113,1.596016,1.648195,1.632971,1.878285,2.000819,2.025934,2.047692,2.135251,2.007033,1.796115,
3/10/2022,1.718612,1.61713,1.426265,1.341366,1.433758,1.504844,1.737679,1.566836,1.279214,1.059245,1.047923,0.91386,0.958887,0.903986,0.865017,0.939178,1.111018,1.489281,1.706749,1.684168,1.713759,1.784936,1.728058,1.590237,
3/11/2022,1.489135,1.47654,1.495077,1.473142,1.514562,1.562584,1.734685,1.536512,1.33737,1.062318,0.942273,0.96129,0.95544,0.982909,0.902712,0.844953,1.008913,1.351712,1.538243,1.653303,1.679172,1.818038,1.750365,1.501185,
3/12/2022,1.449741,1.386454,1.372166,1.314487,1.317158,1.309486,1.241915,1.418478,1.559874,1.591463,1.556118,1.686009,1.815401,1.567129,1.612421,1.716634,1.872576,1.855918,1.893425,1.917068,1.884324,1.882929,1.845045,1.843675,
3/13/2022,1.886252,1.831242,0,1.501778,1.546768,1.479562,1.509048,1.538663,1.640543,1.565681,1.396144,1.404373,1.402217,1.226439,1.180557,1.200914,1.537487,1.590254,1.804322,1.96681,1.908994,1.989917,1.858151,1.749122,
3/14/2022,1.658039,1.508396,1.442466,1.385636,1.35291,1.420599,1.630952,1.712692,1.496419,1.288572,1.155754,1.025569,1.064656,0.948285,0.97296,0.869334,0.951617,0.995891,1.39687,1.655492,1.678302,1.702491,1.546375,1.430196,
3/15/2022,1.481795,1.418576,1.359163,1.355372,1.348443,1.354662,1.497108,1.571638,1.362465,1.20039,1.074995,0.95316,0.868264,0.832886,0.892339,0.906091,0.918723,0.976023,1.219899,1.527098,1.66893,1.75702,1.767714,1.517554,
3/16/2022,1.365543,1.152397,1.161925,1.156334,1.258798,1.296736,1.366159,1.496489,1.230716,0.963573,0.947555,0.892062,0.869592,0.857617,0.793395,0.780914,0.836667,0.983615,1.223919,1.424089,1.584767,1.830811,1.668141,1.456696,
3/17/2022,1.333784,1.218707,1.231223,1.219356,1.152601,1.121142,1.281693,1.467112,1.504491,1.391669,1.282504,1.245107,1.325761,1.227287,1.188855,1.288155,1.320973,1.396188,1.63811,1.657392,1.712496,1.769698,1.615902,1.418675,
3/18/2022,1.513795,1.360933,1.342563,1.245414,1.124116,1.095222,1.348633,1.367559,1.277447,1.027533,0.895229,0.91166,0.813903,0.780412,0.799062,0.791751,0.891891,1.154342,1.367747,1.5013,1.506161,1.675785,1.554569,1.486206,
3/19/2022,1.618507,1.525193,1.277875,1.099092,1.066239,1.031555,1.033031,1.124155,1.091651,1.007586,1.022526,1.100376,1.037553,0.912289,0.976471,0.97839,1.051173,1.114979,1.362101,1.632725,1.680777,1.623367,1.547804,1.375782,
3/20/2022,1.341749,1.285309,1.162097,1.08219,1.000392,0.973033,0.997814,0.990368,1.063382,1.037399,0.950921,0.924205,0.979842,0.955447,0.952657,1.006529,1.057305,1.36063,1.454996,1.733308,1.907788,1.815872,1.66188,1.452325,
3/21/2022,1.327564,1.256933,1.200742,1.104525,1.160336,1.231512,1.4297,1.436594,1.194887,0.985815,0.928985,0.885327,0.928073,0.867514,0.806384,0.845695,1.03804,1.110978,1.429057,1.58942,1.685007,1.714222,1.638925,1.39125,
3/22/2022,1.446383,1.364654,1.336497,1.29263,1.295075,1.321351,1.539918,1.488842,1.286961,1.019883,0.91191,0.883569,0.850845,0.773783,0.763938,0.746918,0.866133,1.000871,1.259064,1.493641,1.560126,1.663029,1.62611,1.49577,
3/23/2022,1.407391,1.313309,1.284102,1.205535,1.185401,1.264702,1.461973,1.441147,1.166724,1.157328,1.165633,0.968988,0.911967,0.962121,1.010516,0.98338,1.167721,1.394776,1.622155,1.868882,1.866753,1.797177,1.564398,1.403952,
3/24/2022,1.404899,1.276187,1.222557,1.224605,1.216694,1.245815,1.405757,1.543088,1.514125,1.445689,1.400776,1.264503,1.257463,1.282502,1.299556,1.268361,1.298955,1.514928,1.743278,1.888783,1.879319,1.766361,1.730568,1.519747,
3/25/2022,1.532901,1.492681,1.441532,1.31143,1.265395,1.34791,1.479778,1.524127,1.320737,1.069743,1.06893,1.040906,1.032554,0.94861,1.124355,1.325657,1.256446,1.277344,1.573818,1.572824,1.646707,1.595352,1.56653,1.314291,
3/26/2022,1.356783,1.318803,1.180462,1.191476,1.129159,1.098206,1.152834,1.36362,1.310758,1.221558,1.135874,1.055001,0.99853,1.074197,0.982324,0.987425,1.050643,1.038856,1.315625,1.507913,1.708541,1.611203,1.619122,1.541888,
3/27/2022,1.462468,1.393742,1.337433,1.309791,1.248332,1.25605,1.320848,1.295854,1.250799,1.200584,1.134119,1.084427,1.114886,1.071916,1.151177,1.220393,1.456995,1.740919,1.934572,1.947813,2.148864,2.067802,2.03079,1.728351,
3/28/2022,1.556689,1.356819,1.38325,1.43551,1.516738,1.55266,1.768372,1.777123,1.557823,1.446323,1.413821,1.246672,1.250425,1.258855,1.209694,1.191522,1.266501,1.455294,1.711365,1.919789,2.013581,2.243784,2.1761,1.913177,
3/29/2022,1.868701,1.734268,1.614769,1.506825,1.480666,1.537053,1.736759,1.793368,1.543388,1.308855,1.168911,1.189982,1.143232,1.109146,1.048406,1.000322,1.131824,1.157231,1.553581,1.771876,1.8929,1.80365,1.760333,1.770287,
3/30/2022,1.761943,1.707428,1.471726,1.47232,1.533786,1.566823,1.711333,1.661937,1.500949,1.237074,1.207574,1.086209,1.076227,1.153803,1.094112,0.998934,1.040294,1.16753,1.38273,1.664545,1.901979,2.062258,1.883762,1.694003,
3/31/2022,1.433139,1.2214,1.199172,1.1668,1.183333,1.162619,1.337863,1.275121,1.114981,0.99413,1.07566,0.979642,0.911074,0.840365,0.807154,0.85985,1.021272,1.223118,1.316403,1.565713,1.582957,1.753209,1.528856,1.398575,
4/1/2022,1.150316,0.988459,0.972181,0.927438,0.936617,1.009318,1.239565,1.194559,1.137888,1.095016,0.995754,0.934819,0.97144,0.914999,0.928312,1.077012,1.027735,1.259396,1.502909,1.674987,1.668654,1.768843,1.588308,1.477425,
4/2/2022,1.558169,1.446124,1.382016,1.424274,1.457252,1.320605,1.323129,1.382564,1.320073,1.16312,1.188456,1.081273,1.013272,0.918378,0.898204,0.883664,0.879536,0.941491,1.298419,1.501645,1.608928,1.636903,1.593101,1.675819,
4/3/2022,1.651425,1.584462,1.437215,1.410391,1.241265,1.17058,1.215383,1.223689,1.266761,1.270936,1.348252,1.220385,1.163293,1.203586,1.248006,1.260081,1.320168,1.450822,1.706275,1.865222,1.89551,1.821664,1.640241,1.427736,
4/4/2022,1.487796,1.419082,1.36635,1.224662,1.302143,1.279415,1.475676,1.555226,1.319019,1.124557,1.124804,1.029746,0.904828,0.962677,1.025225,0.956134,0.989675,1.11478,1.291263,1.542684,1.682194,1.769789,1.791137,1.610557,
4/5/2022,1.441004,1.382336,1.31027,1.272218,1.295244,1.327238,1.47975,1.442882,1.159718,1.084798,1.005695,1.00246,1.030228,0.954263,0.909135,0.909785,1.088825,1.252607,1.473437,1.674021,1.683163,1.716591,1.65934,1.45597,
4/6/2022,1.366666,1.217876,1.172715,1.158398,1.160465,1.176713,1.379771,1.528599,1.444023,1.475171,1.350126,1.247536,1.152685,1.044738,1.114091,1.166484,1.316501,1.434812,1.720217,1.785338,1.658444,1.739916,1.496337,1.421848,
4/7/2022,1.237472,1.239553,1.253062,1.433568,1.369435,1.263068,1.476627,1.457655,1.324776,1.241542,1.403961,1.447049,1.47687,1.541244,1.423421,1.386177,1.472227,1.645961,1.786276,1.845169,1.87513,1.875222,1.706649,1.616434,
4/8/2022,1.422942,1.317357,1.243978,1.21799,1.280619,1.380804,1.538855,1.400972,1.127011,1.045405,1.007416,1.117832,0.907509,0.854918,0.965781,0.979357,1.079031,1.042389,1.316212,1.598057,1.659244,1.761922,1.744132,1.562593,
4/9/2022,1.431353,1.374951,1.287037,1.174203,1.230172,1.234159,1.299228,1.338273,1.263035,1.280776,1.210572,1.116992,0.985331,0.998533,0.989569,1.096411,1.064085,1.285319,1.441508,1.623623,1.674511,1.780786,1.68357,1.512995,
4/10/2022,1.456922,1.282003,1.255628,1.310623,1.3365,1.234641,1.24826,1.312067,1.275802,1.12856,1.169978,1.135676,1.190051,1.215149,1.212793,1.198489,1.417203,1.427208,1.649868,1.946632,1.99083,1.832146,1.675722,1.507159,
4/11/2022,1.428782,1.380291,1.32258,1.254469,1.290711,1.36164,1.559007,1.497388,1.307415,1.069514,0.985752,1.032625,0.96684,0.974877,0.952517,0.933249,0.967385,1.072237,1.363054,1.642568,1.809962,1.84432,1.650258,1.492224,
4/12/2022,1.403452,1.290826,1.268165,1.234138,1.209331,1.203339,1.39493,1.412172,1.24151,1.153815,0.996006,0.923204,0.894886,0.902651,0.892449,0.870092,1.011263,1.099783,1.317652,1.614988,1.772956,1.774188,1.591012,1.390351,
4/13/2022,1.156525,1.065913,1.027209,1.156556,1.166243,1.187689,1.40073,1.309183,1.070048,0.937755,1.004692,0.937709,0.931627,1.008987,1.029649,1.112167,1.285212,1.551602,1.708897,1.855457,2.05314,1.960991,1.761911,1.531311,
4/14/2022,1.366924,1.294882,1.241714,1.129531,1.072787,1.054579,1.151562,1.165606,0.967583,0.915668,1.022488,1.113269,1.169796,1.340364,1.484726,1.804748,2.10321,2.313966,2.097674,2.038784,1.999267,1.906781,1.818411,1.588309,
4/15/2022,1.415563,1.232538,1.161506,1.164336,1.097225,1.033757,1.198268,1.178726,1.141663,0.940806,0.895725,0.879821,0.990621,0.959066,1.062277,1.102,1.162382,1.364399,1.463908,1.66052,1.769876,1.822328,1.720458,1.54707,